Regional Weather Roundup
Issued by NWS

Home | Current Version | Previous Version | Graphics & Text | Print | Product List | Glossary On
Versions: 1 2 3 4 5 6 7 8 9 10 11 12 13 14 15 16 17 18 19 20 21 22 23 24 25 26 27 28 29 30 31 32 33 34 35 36 37 38 39 40 41 42 43 44 45 46 47 48 49 50
000
ASUS43 KMKX 031310
RWRWI

WISCONSIN REGIONAL WEATHER ROUNDUP
NATIONAL WEATHER SERVICE MILWAUKEE/SULLIVAN WI
700 AM CST TUE MAR 03 2015

NOTE: "FAIR" INDICATES FEW OR NO CLOUDS BELOW 12,000 FEET WITH NO
SIGNIFICANT WEATHER AND/OR OBSTRUCTIONS TO VISIBILITY.

WIZ001-002-006>008-014>016-023>028-031400-
NORTHWEST WISCONSIN

CITY           SKY/WX    TMP DP  RH WIND       PRES   REMARKS
SUPERIOR ARPT  LGT SNOW  20  18  92 SW6       29.72F VSB 1   WCI  13
ASHLAND        LGT SNOW  20  16  84 S5        29.74F FOG     WCI  13
HAYWARD        CLOUDY    20  13  74 S7        29.72F WCI  11
SIREN          MOCLDY    20  14  75 CALM      29.72F
CUMBERLAND     CLOUDY    19  14  79 SE8       29.71F WCI   9
RICE LAKE      CLOUDY    21  15  79 SE10      29.74F WCI  10
CHETEK         CLOUDY    21  15  76 E5        29.74F WCI  14
LADYSMITH      CLOUDY    21  15  78 SE7       29.76F WCI  13
EAU CLAIRE     CLOUDY    22  14  71 SE5       29.74F WCI  16
MENOMONIE      CLOUDY    22  16  77 E5        29.74F WCI  16
NEW RICHMOND   CLOUDY    22  13  69 SE5       29.71F WCI  15
OSCEOLA        CLOUDY    22  14  71 SE5       29.74F WCI  16
$$

WIZ003>005-009-010-017-018-031400-
NORTH CENTRAL WISCONSIN

CITY           SKY/WX    TMP DP  RH WIND       PRES   REMARKS
MANITOWISH WTR CLOUDY    18  14  85 S8        29.72F WCI   7
ARBOR VITAE    CLOUDY    19  15  83 SE5       29.74F WCI  12
WOODRUFF       CLOUDY    19  15  83 SE5       29.74F WCI  12
RHINELANDER    CLOUDY    18  13  80 SE6       29.75F WCI  10
EAGLE RIVER    CLOUDY    18  13  79 SE3       29.75F
LAND O LAKES   CLOUDY    19  14  83 S5        29.75F WCI  12
PHILLIPS       CLOUDY    19  13  79 SE5       29.74F WCI  12
TOMAHAWK       CLOUDY    19  14  82 CALM      29.76F
MEDFORD        CLOUDY    19  14  81 SE6       29.74F WCI  11
MERRILL        CLOUDY    20  16  83 SE5       29.77F WCI  13
$$

WIZ029-030-035-036-043>047-031400-
CENTRAL WISCONSIN

CITY           SKY/WX    TMP DP  RH WIND       PRES   REMARKS
WAUSAU         CLOUDY    20  14  77 SE9       29.77F WCI   9
MOSINEE        CLOUDY    19  18  93 SE8       29.79F WCI   9
MARSHFIELD     CLOUDY    22  14  71 SE9       29.76F WCI  12
STEVENS POINT  LGT SNOW  20  16  84 S8        29.79F VSB 1   WCI  10
WAUPACA        LGT SNOW  25  17  70 SE9       29.83F WCI  16
WAUTOMA        LGT SNOW  22  20  92 SE6       29.83F VSB 3/4 WCI  15
WISC RAPIDS    CLOUDY    22  13  68 SE12      29.79F WCI  10
CAMP DOUGLAS   LGT SNOW  21  21 100 SE9       29.77F FOG     WCI  11
$$

WIZ011>013-019>022-031-037>040-048>050-031400-
NORTHEAST WISCONSIN

CITY           SKY/WX    TMP DP  RH WIND       PRES   REMARKS
ANTIGO         CLOUDY    18  15  88 SE12      29.78F WCI   5
SHAWANO        CLOUDY    25  18  76 SE5       29.84F WCI  19
OCONTO         CLOUDY    23  20  89 SE3       29.87F
STURGEON BAY   CLOUDY    28  19  69 S13G21    29.89F WCI  18
GREEN BAY      LGT SNOW  26  20  77 S13       29.85F WCI  15
MANITOWOC      LGT SNOW  28  26  92 S21G28    29.89F FOG     WCI  15
APPLETON       LGT SNOW  25  16  68 SE13      29.84F WCI  13
CLINTONVILLE   CLOUDY    25  18  74 S10       29.83F WCI  15
OSHKOSH        LGT SNOW  24  19  81 SE10      29.82F WCI  14
$$

WIZ032>034-041-042-053>061-031400-
SOUTHWEST WISCONSIN

CITY           SKY/WX    TMP DP  RH WIND       PRES   REMARKS
LA CROSSE      CLOUDY    25  19  78 SE9       29.76F WCI  15
SPARTA         CLOUDY    23  19  83 E3        29.77F
VIROQUA        CLOUDY    22  21  98 SE8       29.72F WCI  12
BOSCOBEL       LGT SNOW  24  20  84 VRB3      29.78F FOG
PRAIRIE DU CHI MIX PCPN  24  21  87 E5        29.77S WCI  18
PLATTEVILLE    CLOUDY    24  22  93 E13       29.75F WCI  12
$$

WIZ056-057-062-063-064-067-068-031400-
SOUTH CENTRAL WISCONSIN

CITY           SKY/WX    TMP DP  RH WIND       PRES   REMARKS
REEDSBURG      LGT SNOW  22  20  93 SE5       29.77F VSB 1   WCI  16
BARABOO/DELLS  LGT SNOW  22  19  89 SE10      29.77F VSB 3/4 WCI  11
LONE ROCK      LGT SNOW  24  20  84 SE8       29.78F FOG     WCI  15
MINERAL POINT  LGT SNOW  27  23  86 SE12      29.73F WCI  16
MADISON        LGT SNOW  24  20  84 SE15      29.80F FOG     WCI  11
MIDDLETON      CLOUDY    25  21  85 SE9       29.79F VSB 1   WCI  15
WATERTOWN      LGT SNOW  23  22  96 SE9       29.82F WCI  13
MONROE         SNOW      23  23 100 SE15G21   29.75F VSB 1/4 WCI  10
JANESVILLE     SNOW      27  25  93 SE9       29.85F VSB 1/4 WCI  17
$$

WIZ051-052-058>065-066-070>072-031400-
SOUTHEAST WISCONSIN

CITY           SKY/WX    TMP DP  RH WIND       PRES   REMARKS
MILWAUKEE      LGT SNOW  26  22  84 S15       29.87F VSB 3/4 WCI  14
WAUKESHA       SNOW      23  19  86 S10       29.86F VSB 1/2 WCI  12
MILWAUKEE/TIMM SNOW      25  21  86 MISG      29.88F VSB 1/2
RACINE         HVY SNOW  26  24  92 SE17      29.89F VSB<1/4 WCI  13
BURLINGTON     SNOW      23  21  94 SE9       29.86F VSB 1/2 WCI  13
KENOSHA        HVY SNOW  26  24  92 SE9       29.88F VSB 1/4 WCI  17
FOND DU LAC    LGT SNOW  24  19  81 S15       29.83F WCI  11
SHEBOYGAN      LGT SNOW  26  23  88 S15G21    29.88F FOG     WCI  14
WEST BEND      LGT SNOW  25  21  86 SE8       29.84F VSB 1   WCI  16
JUNEAU         LGT SNOW  23  20  91 SE15      29.82F WCI  10
$$

LSZ147-162-031400-
LAKE SUPERIOR

STATION/POSITION TIME  TEMP    WIND        PRES    WAVE
                       AIR SEA DIR/SP/G            HT/PER
                 (UTC) (F)     (DEG/KT/KT) (MB)    (FT/S)
DEVILS ISLAND    1300   20     180/  9/ 14 1008.2F
PORT WING        1200   22     190/  7/  9 1008.8F
SAXON HARBOR     1240   23      CALM  / 10 1008.1F
$$

LMZ867-665-643>646-031400-
LAKE MICHIGAN

STATION/POSITION TIME  TEMP    WIND        PRES    WAVE
                       AIR SEA DIR/SP/G            HT/PER
                 (UTC) (F)     (DEG/KT/KT) (MB)    (FT/S)
NORTHPORT PIER   1205   24     160/  2/  8 1013.9F
SISTER BAY       1213   24        CALM       N/A
KEWAUNEE LAKESHO 1200   30     180/ 22/ 25 1013.6F
SHEBOYGAN LAKESH 1300   27     170/ 26/ 27 1012.4F
PORT WASHINGTON  1200   28     170/ 19     1014.9F
MILWAUKEE LAKESH 1200   27     160/ 19/ 22   N/A
KENOSHA   LAKESH 1300   27     150/ 22/ 26 1011.9F
$$

TC  - TEMPERATURE IN CELSIUS
VSB - VISIBILITY IN STATUTE MILES
WCI - WIND CHILL INDEX
HX  - HEAT INDEX




USA.gov is the U.S. government's official web portal to all federal, state and local government web resources and services.